Regional Weather Roundup
Issued by NWS

Home | Current Version | Previous Version | Text Only | Print | Product List | Glossary On
Versions: 1 2 3 4 5 6 7 8 9 10 11 12 13 14 15 16 17 18 19 20 21 22 23 24 25 26 27 28 29 30 31 32 33 34 35 36 37 38 39 40 41 42 43 44 45 46 47 48 49 50
000
ASUS44 KMEG 291410
RWRTN
TENNESSEE HOURLY STATE WEATHER ROUNDUP
NATIONAL WEATHER SERVICE MEMPHIS TN
900 AM CDT FRI MAY 29 2015

TNZ002-004-019-021-049-052-054-088>092-291500-
WEST TENNESSEE

CITY           SKY/WX    TMP DP  RH WIND       PRES   REMARKS
MEMPHIS INTL   CLOUDY    77  69  76 S8        30.10R
NWS MEMPHIS      N/A     76 N/A N/A MISG        N/A
JACKSON        CLOUDY    71  67  87 SE6       30.13R
DYERSBURG      CLOUDY    70  55  60 S3        30.12R
PARIS          CLOUDY    68  68 100 SE7       30.15R
LEXINGTON      CLOUDY    70  66  88 SE5       30.14S
$$

TNZ008-025-027-028-033-062-065-066-291500-
NORTH MIDDLE TENNESSEE

CITY           SKY/WX    TMP DP  RH WIND       PRES   REMARKS
NASHVILLE      PTSUNNY   73  67  81 S10       30.19R
CLARKSVILLE    CLOUDY    72  66  81 S9        30.15R
SMYRNA         CLOUDY    72  67  84 S9        30.19R
COOKEVILLE     SUNNY     73  68  83 S6        30.20R
CROSSVILLE     PTSUNNY   71  64  78 S9        30.25R
$$

TNZ061-075-076-078-094-096-097-291500-
SOUTH MIDDLE TENNESSEE

CITY           SKY/WX    TMP DP  RH WIND       PRES   REMARKS
FAYETTEVILLE   CLOUDY   N/A N/A N/A MISG      30.20R
TULLAHOMA      PTSUNNY   72  64  78 S7        30.22R
WINCHESTER     SUNNY     72  66  83 SE10      30.21R
MCMINNVILLE    SUNNY     73  72  94 VRB5      30.21R
COLUMBIA       CLOUDY    72  68  88 S8        30.16S
SHELBYVILLE    MOSUNNY   73  68  83 S10       30.20R
$$

TNZ017-018-042-046-047-291500-
NORTHEAST TENNESSEE

CITY           SKY/WX    TMP DP  RH WIND       PRES   REMARKS
TRI CITIES     PTSUNNY   72  64  76 CALM      30.26F
ELIZABETHTON   SUNNY     72  63  73 E6        30.27S
$$

TNZ012-013-036-069-073-074-291500-
CENTRAL EAST TENNESSEE

CITY           SKY/WX    TMP DP  RH WIND       PRES   REMARKS
KNOXVILLE      MOSUNNY   74  66  76 E3        30.22S
OAK RIDGE      MOSUNNY   75  65  70 E5        30.24S
GATLINBURG     PTSUNNY   75  63  64 CALM      30.23S
MORRISTOWN     SUNNY     73  64  73 E5        30.25F
$$

TNZ083-085-099-291500-
SOUTHEAST TENNESSEE

CITY           SKY/WX    TMP DP  RH WIND       PRES   REMARKS
CHATTANOOGA    PTSUNNY   73  66  78 SE5       30.23R FOG
$$

SKY/WX REPORTED AS FAIR MEANS FEW OR NO CLOUDS BELOW
12 THOUSAND FEET.



USA.gov is the U.S. government's official web portal to all federal, state and local government web resources and services.